User: anonymous   Login
Location: Makanda
(37.6176°N, 89.2090°W)
Time: 17:17:59
(UTC+00:00)
Language:

Dummy Sat-01 - Orbit

View from above orbital plane
View from above orbital plane
View from above satellite
View from above satellite

Ground track
Ground track

The orbit data is extracted from the following two-line orbital elements,

1 26365U 00026A   19325.79459579  .00000242  00000-0  10044-4 0  9996
2 26365  86.3515 217.7849 0008468 324.3685  35.6991 15.17876608 77890
Epoch (UTC): 21 November 2019 19:04:13
Eccentricity: 0.0008468
inclination: 86.3515°
perigee height: 506 km
apogee height: 518 km
right ascension of ascending node: 217.7849°
argument of perigee: 324.3685°
revolutions per day: 15.17876608
mean anomaly at epoch: 35.6991°
orbit number at epoch: 7789

The dashed part of the orbit path shows where the satellite is in the earth's shadow,  

DLR